Regional Weather Roundup
Issued by NWS

Home | Current Version | Previous Version | Graphics & Text | Print | Product List | Glossary On
Versions: 1 2 3 4 5 6 7 8 9 10 11 12 13 14 15 16 17 18 19 20 21 22 23 24 25 26 27 28 29 30 31 32 33 34 35 36 37 38 39 40 41 42 43 44 45 46 47 48 49 50
000
ASUS43 KIND 191559
RWRIN

WEATHER ROUNDUP FOR INDIANA
NATIONAL WEATHER SERVICE INDIANAPOLIS IN
1100 AM EST THU JAN 19 2017

NOTE: "FAIR" INDICATES FEW OR NO CLOUDS BELOW 12,000 FEET WITH NO
SIGNIFICANT WEATHER AND/OR OBSTRUCTIONS TO VISIBILITY.

* - STATION DOES NOT REPORT WEATHER SUCH AS PRECIPITATION OR FOG.

+ - STATION NOT QUALITY CONTROLLED BY THE NATIONAL WEATHER SERVICE.
    USE DATA WITH CAUTION...ESPECIALLY DEWPOINT AND RELATIVE
    HUMIDITY OBSERVATIONS.

INZ001>003-010>013-019-020-191700-
NORTHWEST INDIANA

CITY           SKY/WX    TMP DP  RH WIND       PRES   REMARKS
GARY /AIRPORT/ CLOUDY    39  36  87 SE3       30.01F FOG
MONTICELLO +   CLOUDY    38  35  89 SE6       30.01S FOG
VALPARAISO     FOG       37  36  96 E7        30.02F VSB 3/4

$$

LMZ046-743>745-191700-
SOUTHERN LAKE MICHIGAN

STATION/POSITION TIME  TEMP    WIND        PRES    WAVE
                       AIR SEA DIR/SP/G            HT
                 (UTC) (F)     (DEG/KT/KT) (MB)    (FT)
BURNS HARBOR     1540   37     160/  5/ 10 1016.9F

$$

INZ004-005-014>016-021>024-191700-
NORTH CENTRAL INDIANA

CITY           SKY/WX    TMP DP  RH WIND       PRES   REMARKS
ELKHART        CLOUDY    36  34  93 S6        30.03F FOG
GOSHEN         CLOUDY    36  32  85 SE7       30.04S FOG
SOUTH BEND     CLOUDY    35  34  96 SE8       30.03F FOG     WCI  29

$$

INZ006>009-017-018-025>027-191700-
NORTHEAST INDIANA

CITY           SKY/WX    TMP DP  RH WIND       PRES   REMARKS
ANGOLA *+      CLOUDY    34  34 100 S6        30.05S WCI  29
FORT WAYNE     CLOUDY    37  34  89 SE7       30.05F FOG
KENDALLVILLE + CLOUDY    35  35 100 S7        30.05S FOG     WCI  29

$$

INZ028-029-035-036-043>045-051>053-191700-
WEST CENTRAL INDIANA

CITY           SKY/WX    TMP DP  RH WIND       PRES   REMARKS
CRAWFORDSVL +  CLOUDY    38  38 100 SE10      29.99S FOG
LAFAYETTE      CLOUDY    39  37  92 E7        29.99F FOG
TERRE HAUTE    PTSUNNY   42  37  82 E8        29.99S

$$

INZ030>032-037>040-046>048-054>057-064-065-191700-
CENTRAL INDIANA

CITY           SKY/WX    TMP DP  RH WIND       PRES   REMARKS
ANDERSON       CLOUDY    37  37 100 SE6       30.04F FOG
COLUMBUS       SUNNY     41  41 100 SE7       30.02F
INDIANAPOLIS   PTSUNNY   42  37  82 E12       30.00F
-EAGLE CREEK   MOSUNNY   42  36  79 SE9       30.00F
KOKOMO +       CLOUDY    36  36 100 SE8       30.03F FOG
MT COMFORT *+  CLOUDY    39  37  93 SE7       30.02F
SHELBYVILLE    CLOUDY    43  38  82 E9        30.00F

$$

INZ033-034-041-042-049-050-058-059-191700-
EAST CENTRAL INDIANA

CITY           SKY/WX    TMP DP  RH WIND       PRES   REMARKS
MUNCIE         CLOUDY    38  35  89 SE7       30.03F FOG

$$

INZ060-061-067>069-081>083-085>088-191700-
SOUTHWEST INDIANA

CITY           SKY/WX    TMP DP  RH WIND       PRES   REMARKS
EVANSVILLE     CLOUDY    47  40  76 E5        29.99R
HUNTINGBURG *+ PTSUNNY   48  40  73 MISG      29.98R

$$

INZ062-063-066-070>080-084-089>092-191700-
SOUTH CENTRAL AND SOUTHEAST INDIANA

CITY           SKY/WX    TMP DP  RH WIND       PRES   REMARKS
BLOOMINGTON    CLOUDY    43  37  79 SE13      29.99F
MADISON *+     CLOUDY    43  37  81 E8        30.03F
SEYMOUR +      CLOUDY    45  39  81 E6        30.01F

$$





USA.gov is the U.S. government's official web portal to all federal, state and local government web resources and services.